AO-07 1 07530U 74089B 17184.52821843 -.00000036 00000-0 54094-4 0 9993 2 07530 101.6311 152.8915 0011657 292.0532 180.6535 12.53627557950908 UO-11 1 14781U 84021B 17184.42953282 .00000087 00000-0 17014-4 0 9994 2 14781 097.6960 229.5460 0009500 139.2080 220.9847 14.82905994771755 LO-19 1 20442U 90005G 17184.41458979 -.00000008 00000-0 13092-4 0 9992 2 20442 098.5759 120.7644 0012965 098.8312 261.4341 14.32863208433946 HUBBLE 1 20580U 90037B 17184.57937500 .00000429 00000-0 15448-4 0 9992 2 20580 028.4692 259.2049 0002753 355.4205 229.0198 15.08792394292675 MET-2/21 1 22782U 93055A 17184.57852405 .00000029 00000-0 12293-4 0 9992 2 22782 082.5485 010.5769 0023017 028.1269 029.0217 13.83800636203693 AO-27 1 22825U 93061C 17183.86588048 -.00000004 00000-0 16232-4 0 9998 2 22825 098.8130 149.6409 0007328 288.8494 071.1893 14.29999578239372 IO-26 1 22826U 93061D 17184.45296276 -.00000006 00000-0 15479-4 0 9998 2 22826 098.8074 150.3154 0007796 275.7825 084.2468 14.30328518239654 FO-29 1 24278U 96046B 17184.57915093 -.00000033 00000-0 54098-5 0 9996 2 24278 098.5617 065.6550 0349376 295.0292 061.4954 13.53076940030841 NOAA-15 1 25338U 98030A 17184.56594110 .00000065 00000-0 46101-4 0 9990 2 25338 098.7812 195.5093 0011095 153.5590 206.6158 14.25803203995070 GO-32 1 25397U 98043D 17184.43028490 -.00000022 00000-0 92561-5 0 9994 2 25397 098.6104 126.4253 0000972 015.2817 344.8391 14.23624289986108 ISS 1 25544U 98067A 17184.57774503 .00001416 00000-0 28671-4 0 9999 2 25544 051.6436 316.6286 0004942 353.9556 094.4022 15.54112690064302 NO-44 1 26931U 01043C 17184.60839496 -.00000029 00000-0 20703-4 0 9993 2 26931 067.0517 048.8283 0007627 263.0274 096.9960 14.30465236822621 SO-50 1 27607U 02058C 17184.13592288 -.00000001 00000-0 20196-4 0 9990 2 27607 064.5562 076.8261 0029640 088.2839 272.1658 14.75335956781332 CO-55 1 27844U 03031E 17184.61004402 .00000050 00000-0 42570-4 0 9997 2 27844 098.6889 193.3775 0008676 304.5551 055.4807 14.22044948726619 CO-57 1 27848U 03031J 17184.54388909 .00000040 00000-0 38073-4 0 9992 2 27848 098.6982 193.5781 0008748 315.3470 044.7002 14.21658774726497 RS-22 1 27939U 03042A 17184.61803505 .00000079 00000-0 22688-4 0 9994 2 27939 097.9414 328.8304 0013293 168.1302 249.8718 14.66575186735589 NOAA-18 1 28654U 05018A 17184.56104310 .00000011 00000-0 31364-4 0 9993 2 28654 099.1814 207.1751 0014852 030.1305 330.0717 14.12341232624471 CO-58 1 28895U 05043F 17184.37836231 .00000133 00000-0 34325-4 0 9996 2 28895 097.8663 345.9247 0018340 092.5679 267.7624 14.63406395622624 Falconsat-3 1 30776U 07006E 17184.51766748 .00002893 00000-0 92031-4 0 9992 2 30776 035.4362 323.0135 0002258 119.8502 240.2448 15.32343292570761 CO-65 1 32785U 08021C 17184.45015627 .00000236 00000-0 31343-4 0 9996 2 32785 097.5656 207.9803 0014670 112.2163 248.0612 14.87899259497249 AAUSAT2 1 32788U 08021F 17184.57726769 .00000773 00000-0 77736-4 0 9990 2 32788 097.5577 219.9444 0013620 078.1129 282.1618 14.93890399498029 DO-64 1 32789U 08021G 17184.58124761 .00001759 00000-0 12830-3 0 9994 2 32789 097.5578 242.4667 0013800 050.8869 309.3582 15.04917408499237 CO-66 1 32791U 08021J 17184.49315881 .00000433 00000-0 50045-4 0 9991 2 32791 097.5625 212.4364 0015086 098.3397 261.9532 14.90236887497498 RS-30 1 32953U 08025A 17184.46071344 .00000019 00000-0 65682-4 0 9998 2 32953 082.5018 229.5341 0017759 247.7317 112.1880 12.43077604413445 PRISM 1 33493U 09002B 17184.42034303 .00000481 00000-0 48879-4 0 9996 2 33493 098.1663 067.5390 0016223 033.1077 327.1159 14.95689219458203 NOAA-19 1 33591U 09005A 17184.56470943 .00000080 00000-0 68814-4 0 9993 2 33591 099.0935 151.6234 0013143 223.3022 136.7117 14.12191729432705 TISAT-1 1 36799U 10035E 17184.32401543 .00000281 00000-0 34884-4 0 9998 2 36799 098.0636 307.3783 0010965 274.2299 085.7665 14.90407840377983 JUGNU 1 37839U 11058B 17184.60389638 .00000281 00000-0 83257-5 0 9990 2 37839 019.9627 350.9388 0019039 004.4935 063.4525 14.12586117295916 SRMSAT 1 37841U 11058D 17184.61227591 .00000295 00000-0 16937-4 0 9998 2 37841 019.9735 032.9067 0011808 261.8338 129.5654 14.10577598295516 AO-71 1 37854U 11061E 17184.61605447 .00001723 00000-0 99396-4 0 9993 2 37854 101.7011 066.6001 0167657 026.3972 334.5661 15.04133117308959 HRBE 1 37855U 11061F 17184.57081115 .00001388 00000-0 80251-4 0 9996 2 37855 101.7143 064.3266 0180855 033.1632 328.0763 15.03096685308787 ALMASAT-1 1 38078U 12006B 17184.38068732 .00009787 37331-5 11401-3 0 9996 2 38078 069.4415 088.7258 0311350 266.8911 089.6623 15.22482232287250 HORYU-2 1 38340U 12025D 17184.50005222 .00000210 00000-0 39069-4 0 9999 2 38340 098.3761 188.9960 0010460 236.6582 123.3625 14.75348658265284 RS-40 1 38735U 12041C 17184.55509632 .00000016 00000-0 46436-4 0 9994 2 38735 082.4772 313.9765 0016361 356.2461 003.8493 12.42574705223737 BEESAT-3 1 39134U 13015E 17184.35976879 .00001122 00000-0 64246-4 0 9997 2 39134 064.8639 174.2597 0036545 264.2028 095.4931 15.17836467231555 BEESAT-2 1 39136U 13015G 17184.41376234 .00000947 00000-0 60161-4 0 9991 2 39136 064.8686 184.9997 0033252 280.1600 079.5775 15.15116229231347 ZACUBE-1 1 39417U 13066B 17184.58126475 .00000205 00000-0 32608-4 0 9999 2 39417 097.6283 226.0292 0058461 215.1124 144.6230 14.80717380195200 TRITON-1 1 39427U 13066M 17184.55472208 .00000196 00000-0 39771-4 0 9992 2 39427 097.6371 198.8142 0112919 296.7206 062.2478 14.67466796193444 GOMX-1 1 39430U 13066Q 17184.49575195 .00000200 00000-0 45590-4 0 9990 2 39430 097.6650 182.2879 0151724 352.1657 007.7175 14.58876920192122 LO-74 1 39440U 13066AA 17184.58863291 .00000188 00000-0 33654-4 0 9991 2 39440 097.6276 215.0840 0079338 246.7418 112.5425 14.75458607193315 AO-73 1 39444U 13066AE 17184.62036914 .00000265 00000-0 39533-4 0 9992 2 39444 097.6299 227.1410 0057727 211.5950 148.1793 14.81452090193455 SPROUT 1 39770U 14029E 17184.52369420 .00000612 00000-0 75773-4 0 9996 2 39770 097.8737 283.7336 0007647 275.4860 084.5490 14.86254116168561 DUCHIFAT-1 1 40021U 14033M 17184.55124761 .00000325 00000-0 39742-4 0 9999 2 40021 097.9181 097.7408 0011593 245.4176 114.5834 14.89901979165035 NANOSATCBR1 1 40024U 14033Q 17184.29197716 .00000346 00000-0 42560-4 0 9998 2 40024 097.9139 096.3435 0010894 247.6299 112.3764 14.89225912164425 EO-79 1 40025U 14033R 17184.54900275 .00000240 00000-0 31888-4 0 9993 2 40025 097.9120 095.6182 0011109 249.8359 110.1663 14.88428250164926 DTUSAT-2 1 40030U 14033W 17184.62560692 .00000232 00000-0 31292-4 0 9993 2 40030 097.9085 094.7915 0010603 243.2317 116.7815 14.88051228164384 EO-80 1 40032U 14033Y 17184.53405348 .00000217 00000-0 29715-4 0 9991 2 40032 097.9092 094.7063 0010547 244.0391 115.9739 14.87985885164353 ANTELSAT 1 40034U 14033AA 17184.57906794 .00000158 00000-0 31472-4 0 9995 2 40034 097.8575 068.0023 0057693 239.6435 119.9061 14.73704927162803 VELOX-1 1 40057U 14034E 17184.35234131 .00000267 00000-0 45440-4 0 9997 2 40057 098.1906 284.8130 0011335 014.0049 346.1470 14.77132488162142 DAURIA DX 1 1 40071U 14037C 17184.54887607 .00000108 00000-0 21289-4 0 9998 2 40071 098.3398 296.2669 0008751 009.1693 350.9677 14.81022103161392 UKUBE-1 1 40074U 14037F 17184.27823239 .00000237 00000-0 35927-4 0 9999 2 40074 098.3489 299.9185 0004778 016.3110 343.8260 14.83509020161566 HODOYOSHI-1 1 40299U 14070B 17184.56170063 .00000501 00000-0 24762-4 0 9996 2 40299 097.4026 267.0521 0014600 039.5245 068.5333 15.22277284147433 CHUBUSAT-1 1 40300U 14070C 17184.53952247 .00000672 00000-0 33370-4 0 9992 2 40300 097.3948 264.1351 0021923 047.4643 049.2257 15.20880918147278 QSAT-EOS 1 40301U 14070D 17184.55872905 .00001250 00000-0 55212-4 0 9999 2 40301 097.3890 264.2509 0028887 042.5919 065.5594 15.23240591147320 FIREBIRD FU3 1 40377U 15003B 17184.58331893 .00001256 00000-0 57729-4 0 9999 2 40377 099.1229 011.8109 0135255 308.3870 050.5271 15.15406799133481 FIREBIRD FU4 1 40378U 15003C 17184.57531199 .00001263 00000-0 57980-4 0 9997 2 40378 099.1232 011.8398 0135440 308.3125 050.5986 15.15428145133487 GRIFEX 1 40379U 15003D 17184.45413735 .00000981 00000-0 48706-4 0 9992 2 40379 099.1251 009.4053 0141371 316.5114 042.5031 15.12978463133346 NO-84 1 40654U 15025D 17182.32268678 .00004832 00000-0 97256-4 0 00130 2 40654 054.9953 173.4485 0177580 301.9123 056.4729 15.33590996001885 NO-83 1 40655U 15025E 17182.32581407 .00010227 00000-0 15959-3 0 00133 2 40655 054.9812 148.0893 0145867 317.0168 041.9470 15.43328641001868 DEORBITSAIL 1 40719U 15032E 17184.59438488 .00000358 00000-0 59278-4 0 9993 2 40719 097.9789 078.1459 0018061 089.8603 270.4676 14.76070111106744 NUDT-PHONESAT 1 40900U 15049B 17184.57027886 .00002258 00000-0 10950-3 0 9991 2 40900 097.4424 192.2600 0014588 161.4189 198.7581 15.19448861098947 XW-2A 1 40903U 15049E 17184.57375517 .00001755 00000-0 47865-4 0 9998 2 40903 097.4204 210.4790 0014183 200.2693 159.7991 15.38791370100169 XW-2C 1 40906U 15049H 17184.55978225 .00000635 00000-0 37900-4 0 9999 2 40906 097.4544 189.7227 0016011 152.3827 207.8259 15.14552434098719 XW-2D 1 40907U 15049J 17184.54206620 .00000696 00000-0 41112-4 0 9999 2 40907 097.4514 189.4637 0015410 150.4110 209.7997 15.14656977098712 LILACSAT-2 1 40908U 15049K 17184.55553407 .00000398 00000-0 26057-4 0 9999 2 40908 097.4616 189.2379 0017006 149.3881 210.8346 15.13128436098648 XW-2F 1 40910U 15049M 17184.60084013 .00001032 00000-0 57743-4 0 9992 2 40910 097.4534 190.2308 0016322 148.1733 212.0489 15.15545083098765 XW-2B 1 40911U 15049N 17184.61463202 .00000672 00000-0 39863-4 0 9997 2 40911 097.4557 189.9192 0015316 150.4960 209.7140 15.14618888098622 DCBB 1 40912U 15049P 17184.44171553 .00000737 00000-0 39842-4 0 9993 2 40912 097.4513 191.9611 0016686 140.9558 325.1976 15.17643413098751 TW-1C 1 40926U 15051B 17184.48063689 .00005178 00000-0 11957-3 0 9995 2 40926 097.2287 223.9162 0013816 108.8641 356.8245 15.42879664099430 TW-1A 1 40928U 15051D 17184.57940036 .00002439 00000-0 71217-4 0 9990 2 40928 097.2260 220.1009 0014009 133.2855 018.3191 15.36191711099215 IO-86 1 40931U 15052B 17184.52331112 .00000606 00000-0 -46374-5 0 9991 2 40931 005.9968 116.2232 0012692 113.5164 246.6317 14.76531381095387 GomX-3 1 40949U 98067HA 16292.18357804 .08527750 12374-4 77882-3 0 9992 2 40949 51.6055 106.7696 0006699 286.1344 73.8944 16.38002265 59645 LQSat 1 40958U 15057A 17184.55147443 .00000011 00000-0 95808-5 0 9995 2 40958 097.9773 259.5848 0018829 017.8240 342.3626 14.72970481093530 AO-85 1 40967U 15058D 17184.50456887 .00000054 00000-0 25752-4 0 00141 2 40967 064.7753 169.3841 0172552 071.9210 290.0605 14.75435916002205 ATHENOXAT-1 1 41168U 15077C 17184.38390247 .00001705 00000-0 58782-4 0 9994 2 41168 014.9874 051.1160 0012452 239.6078 284.9509 15.11613096085494 ChubuSat-2 1 41338U 16012B 17184.59187037 .00000337 00000-0 19734-4 0 9991 2 41338 031.0045 008.0727 0014057 222.5548 137.3999 14.99751387075459 ChubuSat-3 1 41339U 16012C 17184.58438645 .00000233 00000-0 11464-4 0 9992 2 41339 031.0123 007.2393 0013798 229.0019 130.9423 14.99955387075438 Horyu-4 1 41340U 16012D 17184.61742432 .00000484 00000-0 30574-4 0 9991 2 41340 031.0064 004.4092 0014388 238.0009 121.9229 15.00610616075489 OUFTI-1 1 41458U 16025C 17184.61967661 .00000308 00000-0 21437-4 0 9991 2 41458 098.1834 223.1442 0172569 234.3275 124.1780 15.03206855065055 e-st@r-II 1 41459U 16025D 17184.57581147 .00001341 00000-0 76323-4 0 9990 2 41459 098.1860 223.0427 0174090 234.8633 123.6175 15.03058393065033 AAUSAT4 1 41460U 16025E 17184.49701331 .00001015 00000-0 59057-4 0 9995 2 41460 098.1781 223.0708 0166405 233.2964 125.2859 15.03950449065041 MinXSS 1 41474U 98067HU 17125.52237589 .05724416 12300-4 86147-3 0 9995 2 41474 051.6449 208.6967 0008167 329.0747 030.9230 16.33400422055623 CADRE 1 41475U 98067HV 17003.74787607 .12518598 12537-4 55989-3 0 9998 2 41475 51.6110 110.0165 0004040 312.3134 47.7551 16.43344525 36494 NODES 1 1 41477U 98067HX 17184.48427395 .00071789 00000-0 30656-3 0 9991 2 41477 051.6269 278.3503 0001732 321.6170 038.4710 15.84516309064651 NODES 2 1 41478U 98067HY 17184.53231089 .00055925 00000-0 24751-3 0 9994 2 41478 051.6304 278.7071 0001710 324.1556 035.9332 15.83863078064657 LO-87 1 41557U 16033B 17184.26449621 .00001241 00000-0 49449-4 0 9992 2 41557 097.4629 263.7817 0013013 315.7514 044.2683 15.27087789060882 NuSat2 1 41558U 16033C 17184.29884502 .00001273 00000-0 50874-4 0 9996 2 41558 097.4655 263.8722 0012463 314.4266 045.5952 15.26957284060884 Lapan A3 1 41603U 16040E 17184.58197196 .00000101 00000-0 80261-5 0 9996 2 41603 097.4597 246.3700 0014331 023.3138 107.5202 15.19358930057149 Swayam 1 41607U 16040J 17184.11867212 .00001507 00000-0 71316-4 0 9993 2 41607 097.4595 246.2403 0015020 027.3541 332.8482 15.20829595057020 Pratham 1 41783U 16059A 17184.23516269 .00000035 00000-0 16309-4 0 9990 2 41783 098.1659 245.4427 0034969 109.9539 250.5435 14.62841771040940 AlSat 1N 1 41789U 16059G 17184.41546190 .00000063 00000-0 21124-4 0 9994 2 41789 098.1659 246.1527 0029620 103.2097 257.2412 14.64053938040984 ScatSat 1 41790U 16059H 17184.61673356 -.00000019 00000-0 59081-5 0 9999 2 41790 098.0637 233.9701 0012570 096.0915 264.1713 14.50112178040644 TY-1 1 41844U 16066D 17184.58909207 .00000742 00000-0 35411-4 0 9992 2 41844 097.4047 191.4954 0015875 174.9988 309.2050 15.22069707035836 CAS-2T 1 41845U 16066E 17184.54115144 .00000064 00000-0 20496-4 0 9992 2 41845 098.7757 200.5666 0366379 199.5466 159.1367 14.37760352033844 Pegasus-1 1 41846U 16066F 17184.60355830 .00000230 00000-0 45770-4 0 9995 2 41846 098.7800 200.4010 0370006 200.5765 158.0182 14.37027879033835 STARS-C 1 41895U 98067KR 17184.59078208 .00021058 00000-0 23886-3 0 9993 2 41895 051.6383 310.9062 0004612 010.7917 349.3175 15.62314786030552 Tancredo 1 1 41931U 98067KT 17184.60542890 .00039252 00000-0 33690-3 0 9998 2 41931 051.6366 307.2258 0006925 329.4277 030.6315 15.68944981026179 TO-89 1 41932U 98067KU 17184.61330044 .00010917 00000-0 14069-3 0 9992 2 41932 051.6410 312.5760 0005440 332.2219 027.8483 15.59579215026107 AOBA-V3LOX3 1 41935U 98067KX 17184.60024099 .00012013 00000-0 15216-3 0 9998 2 41935 051.6408 312.4849 0004973 335.7869 024.2890 15.59928249026202 OSNSAT 1 41939U 98067KZ 17184.61938377 .00024878 00000-0 25968-3 0 9993 2 41939 051.6384 309.5903 0006655 332.7292 027.3353 15.64324227025505 EO-88 1 42017U 17008BX 17184.59722442 .00001473 00000-0 65629-4 0 9993 2 42017 097.4942 246.0219 0007372 151.4142 208.7500 15.23020562020989 SOMP2 1 42700U 98067LH 17184.58027398 .00011884 00000-0 17369-3 0 9997 2 42700 051.6404 316.0878 0006753 024.7363 335.3951 15.56072909007497 HAVELSAT 1 42701U 98067LJ 17184.58190421 .00011131 00000-0 16383-3 0 9996 2 42701 051.6406 316.0995 0006693 026.0060 334.1267 15.55957549007489 Columbia 1 42702U 98067LK 17184.56702602 .00020787 00000-0 28840-3 0 9993 2 42702 051.6399 316.0000 0007007 014.4990 345.6201 15.56983528007416 PHOENIX 1 42706U 98067LP 17184.38874200 .00013044 00000-0 19036-3 0 9996 2 42706 051.6406 317.0610 0001811 005.3109 354.7902 15.56027581007377 X-CubeSat 1 42707U 98067LQ 17184.58199148 .00011180 00000-0 16431-3 0 9995 2 42707 051.6404 316.1005 0001962 004.0135 356.0871 15.56004794007399 qbee 1 42708U 98067LR 17184.58296602 .00010662 00000-0 15727-3 0 9990 2 42708 051.6404 316.1068 0001954 003.8457 356.2550 15.55962792007356 ZA-AeroSat 1 42713U 98067LU 17184.58953655 .00009293 00000-0 13937-3 0 9993 2 42713 051.6406 316.1504 0002465 324.5710 035.5117 15.55687807007067 LINK 1 42714U 98067LV 17184.58913542 .00011137 00000-0 16509-3 0 9993 2 42714 051.6401 316.1471 0002848 327.6298 032.4518 15.55773548007177 UPSat 1 42716U 98067LX 17184.51924020 .00012388 00000-0 18102-3 0 9991 2 42716 051.6404 316.4307 0004993 026.4230 333.7015 15.56042197007186 SpaceCube 1 42717U 98067LY 17184.58675804 .00010358 00000-0 15360-3 0 9990 2 42717 051.6404 316.1320 0005028 027.4571 332.6685 15.55850030006438 Hoopoe 1 42718U 98067LZ 17184.58550945 .00011592 00000-0 17051-3 0 9999 2 42718 051.6405 316.1239 0005039 025.7874 334.3368 15.55934543006437 Challenger 1 42721U 98067MA 17184.59398603 .00014105 00000-0 20612-3 0 9995 2 42721 051.6401 316.1784 0008312 006.0870 354.0221 15.55885915006139 NJUST-1 1 42722U 98067MB 17184.53585720 .00009126 00000-0 13825-3 0 9993 2 42722 051.6406 316.5401 0007998 009.1348 350.9787 15.55419519006122 UNSW-EC0 1 42723U 98067MC 17184.59800508 .00011311 00000-0 16843-3 0 9996 2 42723 051.6404 316.2057 0008012 007.4993 352.6116 15.55610435006114 DUTHsat 1 42724U 98067MD 17184.59676062 .00013779 00000-0 20249-3 0 9998 2 42724 051.6403 316.1974 0007235 008.8996 351.2122 15.55763104006052 LO-90 1 42725U 98067ME 17184.60180232 .00009537 00000-0 14449-3 0 9992 2 42725 051.6407 316.2311 0007022 011.8205 348.2950 15.55360455006051 nSIGHT1 1 42726U 98067MF 17184.60487779 .00005319 00000-0 84539-4 0 9991 2 42726 051.6409 316.2518 0006885 014.8502 345.2690 15.55104987006045 QBITO 1 42728U 98067MH 17184.53434638 .00010428 00000-0 15618-3 0 9999 2 42728 051.6406 316.5314 0004168 018.2053 341.9087 15.55570658005833 Aalto-2 1 42729U 98067MJ 17184.59845986 .00010309 00000-0 15446-3 0 9995 2 42729 051.6404 316.2096 0004151 018.5350 341.5792 15.55574893005857 SUSat 1 42730U 98067MK 17184.59929486 .00010396 00000-0 15585-3 0 9995 2 42730 051.6403 316.2147 0004244 016.9367 343.1765 15.55548030005850 i-INSPIRE II 1 42731U 98067ML 17184.59743111 .00010444 00000-0 15581-3 0 9995 2 42731 051.6397 316.1995 0007865 320.4832 039.5585 15.55659648005893 PolyITAN-2-SAU 1 42732U 98067MM 17184.59770580 .00009996 00000-0 14973-3 0 9990 2 42732 051.6397 316.2014 0007784 320.3340 039.7081 15.55606587005897 SNUSAT-1 1 42733U 98067MN 17184.59947679 .00009755 00000-0 14682-3 0 9996 2 42733 051.6398 316.2132 0007599 321.7199 038.3252 15.55508951005892 ExAlta-1 1 42734U 98067MP 17184.53328676 .00010899 00000-0 16227-3 0 9999 2 42734 051.6399 316.5219 0009590 343.5673 016.5006 15.55647960005838 Aoxiang-1 1 42735U 98067MQ 17184.59972520 .00008730 00000-0 13234-3 0 9995 2 42735 051.6404 316.2165 0008662 005.8635 354.2456 15.55461685007266 BeEagleSat 1 42736U 98067MR 17184.60013775 .00009909 00000-0 14918-3 0 9995 2 42736 051.6405 316.2194 0008575 004.9930 355.1145 15.55472618005958 Atlantis 1 42737U 98067MS 17184.39831508 .00021902 00000-0 31190-3 0 9992 2 42737 051.6398 317.1215 0008927 358.3204 001.7757 15.56225291005817 CAS-4B 1 42759U 17034B 17184.53787647 -.00000106 00000-0 70082-5 0 9990 2 42759 043.0170 196.7616 0006388 088.2300 053.2500 15.08904639002772 CAS-4A 1 42761U 17034D 17184.53694955 -.00000083 00000-0 84357-5 0 9996 2 42761 043.0163 196.7556 0006970 089.1130 052.1775 15.08978146002763 Object A 1 42765U 17036A 17184.58151101 .00013689 00000-0 10366-3 0 9990 2 42765 094.6146 242.0391 0025061 274.5271 085.3136 15.71964419002251 Object B 1 42766U 17036B 17184.61060381 .00000965 00000-0 48661-4 0 9997 2 42766 097.4493 244.2354 0015886 196.4725 163.5996 15.19426810001589 Object C 1 42767U 17036C 17184.62004940 .00000530 00000-0 29411-4 0 9998 2 42767 097.4485 244.2216 0012949 174.9046 185.2322 15.17893990001581 LituanicaSAT 2 1 42768U 17036D 17184.61001043 .00001886 00000-0 91769-4 0 9999 2 42768 097.4489 244.2353 0015902 199.9366 160.1249 15.19522562001599 Object E 1 42769U 17036E 17184.60950358 .00000520 00000-0 27609-4 0 9997 2 42769 097.4492 244.2367 0015303 198.1383 161.9308 15.19582134001512 InflateSail 1 42770U 17036F 17184.53740705 .00123160 00000-0 53383-2 0 9996 2 42770 097.4497 244.1776 0016897 211.3825 148.6403 15.21713804001511 Object G 1 42771U 17036G 17184.60884462 .00001632 00000-0 79486-4 0 9997 2 42771 097.4491 244.2375 0014959 198.5974 161.4716 15.19688697001530 Object H 1 42772U 17036H 17184.60844660 .00001538 00000-0 75010-4 0 9998 2 42772 097.4491 244.2378 0014696 197.8933 162.1786 15.19746168001532 Object J 1 42773U 17036J 17184.60811735 .00001533 00000-0 74652-4 0 9992 2 42773 097.4491 244.2384 0014493 198.0171 162.0552 15.19794308001531 Object K 1 42774U 17036K 17184.60792679 .00001433 00000-0 69963-4 0 9996 2 42774 097.4493 244.2392 0014362 198.0060 162.0668 15.19820531001520 Object L 1 42775U 17036L 17184.60713835 .00000806 00000-0 40638-4 0 9995 2 42775 097.4493 244.2401 0013975 197.0208 163.0560 15.19930905001534 Object M 1 42776U 17036M 17184.60688552 .00000799 00000-0 40277-4 0 9993 2 42776 097.4494 244.2409 0013846 197.2544 162.8222 15.19967490001537 Object N 1 42777U 17036N 17184.60524919 .00001571 00000-0 75566-4 0 9998 2 42777 097.4502 244.2449 0012844 201.3707 158.6994 15.20212901001527 Max Valier Sat 1 42778U 17036P 17184.60433756 .00000921 00000-0 45483-4 0 9990 2 42778 097.4508 244.2477 0012284 202.3954 157.6746 15.20340247001527 Object Q 1 42779U 17036Q 17184.60393706 .00001378 00000-0 66348-4 0 9991 2 42779 097.4495 244.2449 0012224 208.1972 151.8603 15.20402636001518 Object R 1 42780U 17036R 17184.60371709 .00001416 00000-0 67985-4 0 9993 2 42780 097.4493 244.2446 0012087 208.0902 151.9683 15.20435225001524 Object S 1 42781U 17036S 17184.60362593 .00001270 00000-0 61308-4 0 9996 2 42781 097.4492 244.2444 0012040 208.1100 151.9486 15.20447327001518 Object T 1 42782U 17036T 17184.60343271 .00001365 00000-0 65604-4 0 9997 2 42782 097.4494 244.2451 0011913 208.0268 152.0327 15.20475952001512 Object U 1 42783U 17036U 17184.60310875 .00000894 00000-0 43998-4 0 9990 2 42783 097.4492 244.2452 0011885 210.1539 149.9013 15.20518719001522 Object V 1 42784U 17036V 17184.60294619 .00001077 00000-0 52344-4 0 9997 2 42784 097.4493 244.2457 0011815 210.3510 149.7042 15.20544207001524 Object W 1 42785U 17036W 17184.60284953 .00000918 00000-0 45078-4 0 9997 2 42785 097.4494 244.2460 0011746 210.1951 149.8609 15.20556594001599 Object X 1 42786U 17036X 17184.60252386 .00000936 00000-0 45837-4 0 9996 2 42786 097.4493 244.2462 0011547 210.4609 149.5957 15.20604482001596 Object Y 1 42787U 17036Y 17184.53656774 .00001950 00000-0 91956-4 0 9998 2 42787 097.4492 244.1810 0011478 210.5636 149.4932 15.20635386001359 Object Z 1 42788U 17036Z 17184.60237793 .00001288 00000-0 61809-4 0 9991 2 42788 097.4492 244.2462 0011465 210.3931 149.6641 15.20629505001597 Object AA 1 42789U 17036AA 17184.60207663 .00001246 00000-0 59810-4 0 9998 2 42789 097.4491 244.2464 0011281 210.2846 149.7739 15.20673078001514 VZLUSAT 1 1 42790U 17036AB 17184.60163139 .00001453 00000-0 69120-4 0 9994 2 42790 097.4489 244.2464 0011013 210.5288 149.5307 15.20740274001511 Object AC 1 42791U 17036AC 17184.60133338 .00001139 00000-0 54785-4 0 9995 2 42791 097.4491 244.2473 0010853 211.0077 149.0519 15.20780550001508 Object AD 1 42792U 17036AD 17184.60125502 .00001263 00000-0 60401-4 0 9990 2 42792 097.4489 244.2469 0010817 211.4191 148.6400 15.20793382001525 Object AE 1 42793U 17036AE 17184.59978447 .00000904 00000-0 43871-4 0 9996 2 42793 097.4489 244.2488 0009842 211.8092 148.2551 15.21004693001598 Object AF 1 42794U 17036AF 17184.59924645 .00000726 00000-0 35790-4 0 9991 2 42794 097.4486 244.2490 0009068 208.0995 151.9752 15.21081997001517 Object AG 1 42795U 17036AG 17184.59901824 .00001658 00000-0 77672-4 0 9996 2 42795 097.4484 244.2484 0008975 207.2572 152.8194 15.21081873001510 Object AH 1 42796U 17036AH 17184.60208595 .00001192 00000-0 57363-4 0 9992 2 42796 097.4491 244.2464 0011294 210.2957 149.7627 15.20671195001524 /EX